Glens Falls, NY

4:55 PM EDT on October 22, 2017 (GMT -0400)
Bennett Memorial

Weather History for KGFL - January, 2013

Change the Weather History Date:

Monday, January 21, 2013

  Actual Average Record
Temperature  
Mean Temperature 17 °F 17 °F  
Max Temperature 22 °F 28 °F 53 °F (2006)
Min Temperature 12 °F 7 °F -27 °F (1994)
Degree Days  
Heating Degree Days 48 48  
Month to date heating degree days 868 988  
Since 1 July heating degree days 3459 3926  
Cooling Degree Days 0 0  
Month to date cooling degree days 0 0  
Year to date cooling degree days 0 0  
Moisture  
Dew Point 10 °F    
Average Humidity 69    
Maximum Humidity 92    
Minimum Humidity 45    
Precipitation  
Precipitation T in 0.10 in 1.43 in (1979)
Month to date precipitation 0.23 1.94  
Year to date precipitation 0.23 1.94  
Sea Level Pressure  
Sea Level Pressure 29.94 in    
Wind  
Wind Speed 5 mph (ESE)    
Max Wind Speed 12 mph    
Max Gust Speed 15 mph    
Visibility 6 miles    
Events Snow    
T = Trace of Precipitation, MM = Missing Value Source: NWS Daily Summary

Daily Weather History Graph

Daily Weather History Graph

Search for Another Location

Airport or City:

Trip Planner

Search our weather history database for the weather conditions in past years. The results will help you decide how hot, cold, wet, or windy it might be!

Date:

Astronomy

Jan. 21, 2013 Rise Set
Actual Time 7:20 AM EST 4:52 PM EST
Civil Twilight 6:48 AM EST 5:23 PM EST
Nautical Twilight 6:14 AM EST 5:58 PM EST
Astronomical Twilight 5:40 AM EST 6:32 PM EST
Moon 12:29 PM EST (1/21) 2:46 AM EST (1/21)
Length of Visible Light 10h 34m
Length of Day
9h 32m
Waxing Gibbous, 75% of the Moon is Illuminated
Jan 21
Waxing Gibbous
Jan 26
Full
Feb 3
Last Quarter
Feb 10
New
Feb 17
First Quarter

Hourly Weather History & Observations

Time (EST) Temp. Windchill Dew Point Humidity Pressure Visibility Wind Dir Wind Speed Gust Speed Precip Events Conditions
12:53 AM 17.1 °F 10.0 °F -0.0 °F 47% 30.03 in 10.0 mi Variable 4.6 mph - N/A   Clear
1:53 AM 14.0 °F 8.2 °F 3.0 °F 62% 30.05 in 10.0 mi SSW 3.5 mph - N/A   Clear
2:53 AM 14.0 °F 5.1 °F 1.9 °F 59% 30.06 in 10.0 mi SW 5.8 mph - N/A   Clear
3:53 AM 14.0 °F 5.1 °F 1.0 °F 56% 30.06 in 10.0 mi SW 5.8 mph - N/A   Clear
4:53 AM 16.0 °F 7.4 °F 1.0 °F 52% 30.07 in 10.0 mi SW 5.8 mph - N/A   Overcast
5:53 AM 16.0 °F 5.3 °F 1.9 °F 54% 30.07 in 10.0 mi SW 8.1 mph - N/A   Overcast
6:53 AM 16.0 °F 6.3 °F 1.9 °F 54% 30.07 in 10.0 mi SW 6.9 mph - N/A   Overcast
7:53 AM 17.1 °F 8.7 °F 1.9 °F 52% 30.08 in 10.0 mi SW 5.8 mph - N/A   Overcast
8:53 AM 18.0 °F 9.8 °F 3.0 °F 52% 30.09 in 10.0 mi West 5.8 mph - N/A   Overcast
9:53 AM 18.0 °F 12.7 °F 3.9 °F 54% 30.09 in 10.0 mi SSW 3.5 mph - N/A   Overcast
10:53 AM 19.9 °F - 3.9 °F 50% 30.06 in 10.0 mi Calm Calm - N/A   Overcast
11:53 AM 21.0 °F - 6.1 °F 53% 30.02 in 10.0 mi Calm Calm - N/A   Overcast
12:53 PM 21.9 °F 17.2 °F 6.1 °F 51% 29.97 in 10.0 mi SE 3.5 mph - N/A   Overcast
1:53 PM 21.9 °F 13.4 °F 8.1 °F 55% 29.97 in 10.0 mi ESE 6.9 mph - N/A   Overcast
2:53 PM 21.9 °F 14.5 °F 10.9 °F 63% 29.95 in 10.0 mi SE 5.8 mph - 0.00 in   Overcast
3:53 PM 21.0 °F 10.6 °F 12.0 °F 68% 29.94 in 9.0 mi South 9.2 mph - N/A   Overcast
4:35 PM 19.4 °F 14.3 °F 14.0 °F 80% 29.89 in 1.8 mi South 3.5 mph - 0.00 in Snow Light Snow
4:53 PM 19.9 °F 14.9 °F 15.1 °F 81% 29.92 in 2.5 mi South 3.5 mph - 0.00 in Snow Light Snow
5:02 PM 19.4 °F - 15.8 °F 86% 29.88 in 4.0 mi Calm Calm - 0.00 in Snow Light Snow
5:53 PM 19.9 °F - 15.1 °F 81% 29.92 in 2.5 mi Calm Calm - 0.00 in Snow Light Snow
6:10 PM 19.4 °F - 15.8 °F 86% 29.88 in 2.0 mi Calm Calm - 0.00 in Snow Light Snow
6:22 PM 19.4 °F - 15.8 °F 86% 29.88 in 1.8 mi Calm Calm - 0.00 in Snow Light Snow
6:43 PM 19.4 °F - 15.8 °F 86% 29.88 in 2.0 mi Calm Calm - 0.00 in Snow Light Snow
6:53 PM 19.9 °F 14.9 °F 16.0 °F 85% 29.92 in 1.5 mi ENE 3.5 mph - 0.00 in Snow Light Snow
7:38 PM 19.4 °F 11.5 °F 15.8 °F 86% 29.87 in 2.0 mi NE 5.8 mph - 0.00 in Snow Light Snow
7:51 PM 19.4 °F 11.5 °F 15.8 °F 86% 29.87 in 1.8 mi ENE 5.8 mph - 0.00 in Snow Light Snow
7:53 PM 19.4 °F 11.5 °F 15.8 °F 86% 29.86 in 1.8 mi ENE 5.8 mph - N/A Snow Light Snow
8:32 PM 19.4 °F 11.5 °F 15.8 °F 86% 29.85 in 2.0 mi ENE 5.8 mph - 0.00 in Snow Light Snow
8:53 PM 19.0 °F 12.3 °F 16.0 °F 88% 29.88 in 2.5 mi NE 4.6 mph - 0.00 in Snow Light Snow
9:09 PM 19.4 °F 10.4 °F 15.8 °F 86% 29.84 in 2.5 mi ENE 6.9 mph - 0.00 in Snow Light Snow
9:16 PM 19.4 °F 12.8 °F 15.8 °F 86% 29.84 in 3.0 mi ENE 4.6 mph - N/A Snow Light Snow
9:53 PM 18.0 °F 11.1 °F 15.1 °F 88% 29.86 in 9.0 mi NE 4.6 mph - 0.00 in Snow Light Snow
10:19 PM 19.4 °F 12.8 °F 15.8 °F 86% 29.82 in 10.0 mi NNE 4.6 mph - 0.00 in   Overcast
10:53 PM 18.0 °F 12.7 °F 15.1 °F 88% 29.84 in 3.0 mi NE 3.5 mph - 0.00 in Snow Light Snow
11:21 PM 17.6 °F 7.3 °F 14.0 °F 86% 29.80 in 3.0 mi North 8.1 mph - 0.00 in Snow Light Snow
11:49 PM 15.8 °F 8.6 °F 12.2 °F 86% 29.79 in 9.0 mi NNE 4.6 mph - 0.00 in   Overcast
11:53 PM 16.0 °F 8.8 °F 10.9 °F 81% 29.83 in 10.0 mi NNE 4.6 mph - 0.00 in   Overcast